Mount Washington, New Hampshire, United States (03589)
Lat: 44.69N, Lon: 71.39W
Wx Zone: NHZ002
Local Info
Past Weather Observations for Today

NOTE: This archive is for the closest National Weather Service station to Mount Washington. Information may differ from the station used for current weather conditions.

Click here for Long-term Archive

Time Weather Temperature Dewpoint Humidity Pressure Winds Precip Visibility
10:52
Mostly Cloudy
23°F / -5°C 9°F / -13°C 54% 30.01 in
(1016 mb)
NW 12.7 mph
(NW 20 kph)
0.00 in
(0.00 mm)
10SM
10:47
Overcast
21°F / -6°C 9°F / -13°C 58% 30.01 in
(1016 mb)
NW 15 mph
(NW 24 kph)
0.00 in
(0.00 mm)
9SM
10:22
Overcast
Light Snow
21°F / -6°C 10°F / -12°C 63% 30.01 in
(1016 mb)
NW 12.7 mph
(NW 20 kph)
0.00 in
(0.00 mm)
5SM
10:13
Overcast
Light Snow
21°F / -6°C 12°F / -11°C 68% 30.01 in
(1016 mb)
NW 10.4 mph
(NW 17 kph)
0.00 in
(0.00 mm)
2SM
09:59
Overcast
Light Snow
21°F / -6°C 12°F / -11°C 68% 30.01 in
(1016 mb)
WNW 9.2 mph
(WNW 15 kph)
0.00 in
(0.00 mm)
1 1/4SM
09:55
Overcast
Light Snow
21°F / -6°C 12°F / -11°C 68% 29.98 in
(1015 mb)
WNW 12.7 mph
(WNW 20 kph)
0.00 in
(0.00 mm)
2 1/2SM
09:52
Overcast
Light Snow
21°F / -6°C 12°F / -11°C 68% 29.98 in
(1015 mb)
WNW 12.7 mph
(WNW 20 kph)
0.00 in
(0.00 mm)
6SM
09:14
Overcast
Light Snow
21°F / -6°C 12°F / -11°C 68% 29.98 in
(1015 mb)
NW 9.2 mph
(NW 15 kph)
0.00 in
(0.00 mm)
5SM
09:04
Overcast
Light Snow
21°F / -6°C 14°F / -10°C 74% 29.95 in
(1014 mb)
WNW 10.4 mph
(WNW 17 kph)
0.00 in
(0.00 mm)
2SM
08:59
Overcast
Light Snow
21°F / -6°C 14°F / -10°C 74% 29.95 in
(1014 mb)
WNW 11.5 mph
(WNW 19 kph)
0.00 in
(0.00 mm)
1 1/4SM
08:52
Overcast
Light Snow
21°F / -6°C 12°F / -11°C 68% 29.95 in
(1014 mb)
NW 10.4 mph
(NW 17 kph)
0.00 in
(0.00 mm)
1 1/2SM
08:50
Overcast
Light Snow
21°F / -6°C 12°F / -11°C 68% 29.95 in
(1014 mb)
NW 11.5 mph
(NW 19 kph)
0.00 in
(0.00 mm)
1 3/4SM
08:45
Overcast
Light Snow
21°F / -6°C 12°F / -11°C 68% 29.95 in
(1014 mb)
NW 12.7 mph
(NW 20 kph)
0.00 in
(0.00 mm)
3SM
08:38
Overcast
Light Snow
21°F / -6°C 12°F / -11°C 68% 29.95 in
(1014 mb)
W 11.5 mph
(W 19 kph)
0.00 in
(0.00 mm)
2 1/2SM
08:34
Obscured
Light Snow
21°F / -6°C 12°F / -11°C 68% 29.95 in
(1014 mb)
W 13.8 mph
(W 22 kph)
0.00 in
(0.00 mm)
1SM
08:31
Obscured
Light Snow
19°F / -7°C 14°F / -10°C 79% 29.95 in
(1014 mb)
W 11.5 mph
(W 19 kph)
0.00 in
(0.00 mm)
3/4SM
08:16
Obscured
Snow
19°F / -7°C 14°F / -10°C 79% 29.95 in
(1014 mb)
NW 9.2 mph
(NW 15 kph)
0.00 in
(0.00 mm)
1/2SM
08:00
Overcast
Light Snow
21°F / -6°C 12°F / -11°C 68% 29.92 in
(1013 mb)
NW 9.2 mph
(NW 15 kph)
0.00 in
(0.00 mm)
1 1/4SM
07:52
Overcast
Light Snow
21°F / -6°C 12°F / -11°C 68% 29.92 in
(1013 mb)
NW 12.7 mph
(NW 20 kph)
0.00 in
(0.00 mm)
1 1/2SM
07:33
Overcast
Light Snow
21°F / -6°C 12°F / -11°C 68% 29.92 in
(1013 mb)
NW 9.2 mph
(NW 15 kph)
0.00 in
(0.00 mm)
6SM
07:24
Overcast
Light Snow
19°F / -7°C 12°F / -11°C 73% 29.89 in
(1012 mb)
WNW 8.1 mph
(WNW 13 kph)
0.00 in
(0.00 mm)
3SM
06:52
Overcast
Light Snow
19°F / -7°C 14°F / -10°C 79% 29.89 in
(1012 mb)
W 8.1 mph
(W 13 kph)
0.00 in
(0.00 mm)
1 3/4SM
06:40
Overcast
Light Snow
19°F / -7°C 14°F / -10°C 79% 29.86 in
(1011 mb)
Variable 5.8 mph
(Variable 9 kph)
0.00 in
(0.00 mm)
1 1/2SM
05:52
Overcast
Light Snow
19°F / -7°C 12°F / -11°C 73% 29.83 in
(1010 mb)
W 4.6 mph
(W 7 kph)
0.00 in
(0.00 mm)
2SM
05:17
Overcast
19°F / -7°C 10°F / -12°C 68% 29.83 in
(1010 mb)
Variable 3.5 mph
(Variable 6 kph)
- 9SM
04:52
Overcast
19°F / -7°C 10°F / -12°C 68% 29.83 in
(1010 mb)
Variable 5.8 mph
(Variable 9 kph)
- 10SM
03:52
Overcast
19°F / -7°C 9°F / -13°C 63% 29.8 in
(1009 mb)
Variable 4.6 mph
(Variable 7 kph)
- 10SM
02:52
Partly Cloudy
16°F / -9°C 9°F / -13°C 73% 29.77 in
(1008 mb)
Variable 5.8 mph
(Variable 9 kph)
- 10SM
01:52
Mostly Cloudy
16°F / -9°C 7°F / -14°C 67% 29.77 in
(1008 mb)
Calm - 10SM
00:52
Clear
19°F / -7°C 7°F / -14°C 58% 29.77 in
(1008 mb)
Variable 3.5 mph
(Variable 6 kph)
- 10SM
Time Weather Temperature Dewpoint Humidity Pressure Winds Precip Visibility


Weather for websites

WeatherForYou.com, LLC is not responsible for any damages or problems caused by this service. Current weather conditions are obtained from the closest station including government and personal stations which may have varying degrees of accuracy. Weather forecasts are derived from the NOAA NDFD. Like all things, this site belongs to Jesus Christ... He just trusts me to maintain it. If you have any questions or comments email webmaster@weatherforyou.com

Copyright © 2014, WeatherForYou.com LLC. All rights reserved.